[[{"header":{"parameterUnit":"m.s-1","parameterCategory":1,"la1":30.2991,"la2":30.254,"lo1":-89.0895,"lo2":-89.0444,"dy":0.0017,"dx":0.0017,"nx":28,"ny":28,"refTime":"2025-06-09T03:00:00:Z","depth":0,"parameterNumber":2,"parameterNumberName":"U-component_of_WINDS"},"data":[0,0,0,0,0,0,0,0,0,0,0,0,0,0,0,0,0,0,0,0,0,0,0,0,0,0,0,0,0,0,0,0,0,0,0,0,0,0,0,0,0,0,0,0,0,0,0,0,0,0,0,0,0,0,0,0,0,0,1.9677,1.9678,0,1.9758,1.9759,1.976,1.9837,1.9837,1.9838,1.9839,1.9923,1.9924,1.9926,0,0,0,0,0,0,0,0,0,0,0,0,0,1.9591,1.9592,1.9677,1.9678,1.9679,1.9758,1.9759,1.9761,1.9836,1.9837,1.9839,1.984,1.9923,1.9924,1.9926,0,0,0,0,0,0,0,0,0,0,0,0,0,1.9646,1.9593,1.9677,1.9727,1.9732,1.9758,1.9759,1.9761,1.9836,1.9838,1.9839,1.984,1.9922,1.9924,1.9926,1.991,0,0,1.9932,1.9933,0,0,0,0,0,0,0,0,1.9643,1.9649,1.9718,1.9723,1.9729,1.9789,1.976,1.9811,1.9836,1.9796,1.9839,1.9841,1.9877,1.9883,1.9895,1.9914,1.9918,1.9933,1.9934,1.9935,1.9935,0,0,0,0,0,0,0,1.9639,1.9646,1.9709,1.9719,1.9726,1.9746,1.9755,1.977,1.9828,1.98,1.9806,1.9814,1.9881,1.9893,1.9898,1.9919,1.9932,1.9934,1.9936,1.9936,1.9932,1.9931,0,0,0,0,0,0,1.9627,1.9642,1.9707,1.9712,1.9688,1.9746,1.9757,1.9768,1.9828,1.9839,1.9813,1.9818,1.9889,1.9895,1.9901,1.9887,1.9935,1.9937,1.9938,1.9933,1.9932,1.993,0,0,0,0,0,0,1.9625,1.9632,1.9704,1.9679,1.9689,1.9746,1.9759,1.9769,1.9782,1.9838,1.9849,1.9815,1.989,1.9898,1.9908,1.9891,1.9937,1.9939,1.9935,1.9933,1.9931,1.9858,0,0,0,0,0,0,1.9622,1.9631,1.9624,1.9678,1.969,1.9707,1.9757,1.977,1.9785,1.9791,1.9842,1.9852,1.9892,1.9905,1.991,1.9895,1.9941,1.9937,1.9934,1.9932,1.9862,1.9854,1.9847,0,0,0,0,0,1.9619,1.96,1.9623,1.9631,1.9683,1.9706,1.9713,1.9759,1.9783,1.9777,1.9815,1.9851,1.9893,1.9905,1.9912,1.9897,1.9938,1.9935,1.9932,1.9866,1.9856,1.9847,0,0,0,0,0,0,1.9542,1.9608,1.9634,1.9632,1.9663,1.9719,1.9713,1.9747,1.9772,1.9777,1.9834,1.9845,1.9848,1.9874,1.9886,1.9886,1.992,1.9919,1.9868,1.9859,1.9851,1.9844,1.9943,0,0,0,0,0,1.9525,1.9537,1.9595,1.9588,1.9602,1.9655,1.9667,1.97,1.9734,1.9748,1.9785,1.9817,1.9839,1.9851,1.9873,1.9868,1.9881,1.9861,1.9854,1.9847,1.9844,1.9845,1.9837,1.992,1.992,1.992,0,0,1.9489,1.9527,1.9531,1.9573,1.9601,1.9614,1.9665,1.9676,1.9686,1.9749,1.976,1.979,1.983,1.9833,1.9836,1.9854,1.9825,1.9843,1.9837,1.9838,1.9841,1.9833,1.9826,1.9918,1.9919,1.9919,0,0,1.943,1.946,1.9458,1.9486,1.9528,1.9564,1.9563,1.9615,1.9637,1.9649,1.9698,1.9712,1.9746,1.9774,1.9792,1.9748,1.9783,1.9755,1.9713,1.9713,1.9707,1.9701,1.9685,1.9679,1.9752,1.9752,1.9752,0,1.938,1.94,1.9452,1.9461,1.9479,1.9538,1.9537,1.9562,1.9609,1.962,1.9641,1.9687,1.9719,1.9729,1.9719,1.9732,1.9734,1.9747,1.9703,1.9698,1.9694,1.968,1.9674,1.9748,1.9748,1.9749,1.9749,0,1.9337,1.9351,1.9345,1.9389,1.9407,1.941,1.9464,1.9476,1.951,1.9544,1.9557,1.9598,1.963,1.9636,1.9668,1.9652,1.9662,1.9693,1.9728,1.9681,1.9669,1.9664,1.9742,1.9744,1.9745,1.9746,0,0,1.9227,1.9304,1.93,1.9322,1.9375,1.9387,1.9396,1.9428,1.9437,1.9469,1.9477,1.9507,1.9537,1.9558,1.9594,1.9595,1.9559,1.9626,1.9627,1.9611,1.9544,1.9519,1.9512,1.9584,1.9583,1.9582,1.9541,0,1.9176,1.9192,1.9241,1.9243,1.9257,1.9317,1.9324,1.9358,1.9392,1.941,1.9449,1.9468,1.9506,1.9519,1.9523,1.9562,1.9546,1.9566,1.9592,1.9592,1.9577,1.9506,1.9479,1.9437,1.9536,1.9535,1.9535,0,1.9116,1.9145,1.9148,1.9204,1.9212,1.9217,1.9252,1.9269,1.931,1.9335,1.936,1.9402,1.9416,1.9451,1.9471,1.9484,1.9498,1.952,1.952,1.9522,1.9558,1.9504,1.9425,1.9418,1.9528,1.9528,1.9529,0,1.9034,1.9075,1.9082,1.91,1.9164,1.9167,1.9194,1.9237,1.9255,1.9286,1.9298,1.9331,1.9348,1.9374,1.9424,1.9445,1.9439,1.9478,1.946,1.9458,1.9453,1.9452,1.9373,1.9466,1.9466,1.9466,1.9466,0,1.897,1.8969,1.9046,1.905,1.9053,1.9111,1.9112,1.9146,1.9184,1.9197,1.9252,1.9263,1.933,1.935,1.939,1.9401,1.9409,1.943,1.944,1.9423,1.942,1.9431,1.9435,1.9464,1.9465,1.9465,1.9465,0,1.8876,1.8928,1.894,1.9002,1.9018,1.9017,1.907,1.9078,1.9117,1.9133,1.9141,1.9202,1.9228,1.9282,1.9323,1.935,1.9352,1.9371,1.9337,1.9343,1.9322,1.9322,1.9245,1.9238,1.9336,1.9335,1.9334,0,1.883,1.8831,1.8894,1.8907,1.8932,1.8952,1.8971,1.903,1.9048,1.9098,1.9099,1.9131,1.9158,1.9198,1.9247,1.9279,1.9299,1.927,1.9304,1.9288,1.9297,1.9296,1.9296,1.9261,1.926,1.9258,1.9258,0,1.8742,1.8769,1.8793,1.8828,1.8849,1.8878,1.8911,1.8919,1.8987,1.9004,1.9032,1.9054,1.9097,1.9128,1.9168,1.9198,1.9239,1.9247,1.9245,1.9226,1.9206,1.9216,1.9314,1.9248,1.9249,1.9249,1.925,1.925,1.867,1.8675,1.872,1.8747,1.8779,1.8809,1.8819,1.8861,1.8886,1.8925,1.896,1.8986,1.9031,1.909,1.9118,1.914,1.916,1.9156,1.9155,1.9152,1.9145,1.9205,1.9148,1.9148,1.9149,1.9149,1.9149,0,1.8584,1.8618,1.8642,1.8687,1.8708,1.8747,1.8787,1.8802,1.8824,1.8863,1.889,1.8924,1.8955,1.9008,1.9044,1.9052,1.9071,1.9059,1.9057,1.9064,1.9126,1.9124,1.9042,1.9042,1.9042,1.9042,1.9042,1.9042,1.8541,1.8552,1.8585,1.8612,1.8647,1.8672,1.8691,1.872,1.8752,1.8787,1.8814,1.8849,1.8895,1.8935,1.8966,1.8982,1.8992,1.8973,1.8993,1.905,1.9059,1.9069,1.9067,1.8975,1.8975,1.893,1.8929,1.8929]},{"header":{"parameterUnit":"m.s-1","parameterCategory":1,"la1":30.2991,"la2":30.254,"lo1":-89.0895,"lo2":-89.0444,"dy":0.0017,"dx":0.0017,"nx":28,"ny":28,"refTime":"2025-06-09T03:00:00:Z","depth":0,"parameterNumber":3,"parameterNumberName":"V-component_of_WINDS"},"data":[0,0,0,0,0,0,0,0,0,0,0,0,0,0,0,0,0,0,0,0,0,0,0,0,0,0,0,0,0,0,0,0,0,0,0,0,0,0,0,0,0,0,0,0,0,0,0,0,0,0,0,0,0,0,0,0,0,0,5.4201,5.4203,0,5.4388,5.439,5.4392,5.446,5.446,5.4459,5.4459,5.4637,5.4642,5.4647,0,0,0,0,0,0,0,0,0,0,0,0,0,5.3893,5.3898,5.4201,5.4204,5.4206,5.4387,5.439,5.4392,5.446,5.446,5.4459,5.4458,5.4635,5.4641,5.4648,0,0,0,0,0,0,0,0,0,0,0,0,0,5.4047,5.39,5.4201,5.4262,5.427,5.4387,5.439,5.4393,5.4461,5.446,5.4459,5.4458,5.4633,5.4641,5.4648,5.4715,0,0,5.4673,5.4676,0,0,0,0,0,0,0,0,5.4038,5.4058,5.4251,5.4258,5.4267,5.44,5.4346,5.45,5.4461,5.4388,5.4459,5.4458,5.4558,5.4572,5.4608,5.4723,5.4731,5.4673,5.4678,5.4682,5.4684,0,0,0,0,0,0,0,5.4028,5.4051,5.4275,5.4253,5.4263,5.4276,5.4297,5.4376,5.4475,5.4394,5.4399,5.4421,5.4562,5.46,5.4613,5.4733,5.4673,5.468,5.4685,5.4688,5.491,5.4911,0,0,0,0,0,0,5.4008,5.4041,5.4269,5.428,5.4148,5.4283,5.4306,5.4358,5.4474,5.4491,5.4422,5.4424,5.4587,5.4604,5.4619,5.4705,5.4681,5.4689,5.4693,5.4909,5.4911,5.4912,0,0,0,0,0,0,5.4001,5.4028,5.4261,5.4163,5.4193,5.4289,5.4346,5.4362,5.4401,5.4496,5.4512,5.4444,5.4587,5.4608,5.4691,5.4712,5.4692,5.47,5.4908,5.491,5.4911,5.4876,0,0,0,0,0,0,5.3992,5.4025,5.4054,5.4163,5.4198,5.4333,5.4348,5.4366,5.4416,5.442,5.4521,5.4536,5.4588,5.4679,5.4699,5.4722,5.4706,5.4906,5.4909,5.4911,5.4875,5.4876,5.4876,0,0,0,0,0,5.3981,5.4034,5.4055,5.4082,5.4237,5.4334,5.4354,5.4417,5.4417,5.4445,5.4506,5.4533,5.4706,5.4687,5.471,5.4736,5.4905,5.4908,5.4911,5.4875,5.4876,5.4876,0,0,0,0,0,0,5.3921,5.4049,5.4074,5.4165,5.4239,5.4346,5.4384,5.4415,5.4487,5.4488,5.4558,5.458,5.4657,5.4705,5.4681,5.4806,5.4807,5.4815,5.4772,5.4774,5.4774,5.4761,5.4712,0,0,0,0,0,5.3919,5.3991,5.4098,5.4167,5.4203,5.4287,5.4331,5.4374,5.4451,5.4481,5.4548,5.4619,5.4689,5.4734,5.4804,5.4882,5.4904,5.4911,5.4912,5.4912,5.4917,5.4961,5.4966,5.492,5.492,5.492,0,0,5.3914,5.3993,5.4033,5.4157,5.4219,5.4289,5.4312,5.4385,5.4436,5.4491,5.4575,5.4626,5.4709,5.479,5.4829,5.4832,5.4935,5.4915,5.4914,5.492,5.4964,5.4969,5.4972,5.4922,5.4922,5.4922,0,0,5.3941,5.4009,5.4074,5.4137,5.4233,5.4288,5.4303,5.4406,5.4444,5.453,5.4572,5.4632,5.4752,5.481,5.4855,5.4904,5.4931,5.4924,5.4927,5.4969,5.4973,5.4976,5.4994,5.4999,5.4929,5.4929,5.4929,0,5.3921,5.4033,5.4102,5.4175,5.4226,5.4283,5.4348,5.4404,5.4515,5.4548,5.4551,5.4704,5.4763,5.4859,5.4871,5.4906,5.4923,5.4914,5.4968,5.4972,5.4976,5.4993,5.4999,5.4928,5.4928,5.4928,5.4928,0,5.4004,5.408,5.4121,5.4232,5.4288,5.4356,5.4432,5.448,5.4517,5.4571,5.4656,5.473,5.4817,5.4842,5.4877,5.4942,5.4941,5.4955,5.4958,5.4978,5.4995,5.5002,5.4926,5.4927,5.4927,5.4927,0,0,5.3998,5.4149,5.4162,5.4214,5.4323,5.4381,5.445,5.4539,5.4578,5.4652,5.471,5.4811,5.4825,5.4875,5.4917,5.4954,5.4988,5.4963,5.4966,5.4965,5.5063,5.5053,5.5059,5.5006,5.5008,5.5009,5.5056,0,5.4039,5.4171,5.4235,5.4336,5.4406,5.4461,5.452,5.4592,5.4643,5.4707,5.4762,5.4833,5.4846,5.4877,5.4917,5.4975,5.5008,5.4973,5.5058,5.506,5.5036,5.5068,5.5057,5.5098,5.5063,5.5065,5.5065,0,5.4106,5.4185,5.4294,5.4396,5.4428,5.4481,5.4567,5.4629,5.4709,5.4744,5.4802,5.4843,5.4913,5.4911,5.5008,5.4983,5.5021,5.5055,5.5058,5.5068,5.5064,5.5079,5.5113,5.5119,5.5077,5.5076,5.5075,0,5.4091,5.4223,5.4307,5.4348,5.4469,5.4505,5.4556,5.4637,5.4686,5.476,5.4792,5.4871,5.4914,5.4973,5.5033,5.5026,5.5123,5.5126,5.5152,5.515,5.517,5.5168,5.521,5.5194,5.5194,5.5194,5.5194,0,5.413,5.4195,5.4302,5.4353,5.4425,5.4497,5.4566,5.4621,5.4692,5.4752,5.4801,5.4855,5.4932,5.4994,5.504,5.5113,5.5132,5.516,5.5171,5.5156,5.5152,5.5182,5.5181,5.5196,5.5195,5.5195,5.5195,0,5.4126,5.4201,5.4295,5.4403,5.4431,5.448,5.457,5.462,5.4674,5.4749,5.477,5.4854,5.4931,5.4997,5.5095,5.5127,5.5202,5.5215,5.5176,5.5182,5.5205,5.5202,5.5268,5.528,5.5254,5.5255,5.5255,0,5.4147,5.4199,5.4313,5.4359,5.4411,5.4483,5.4535,5.4606,5.4657,5.4754,5.4791,5.4872,5.494,5.5058,5.5126,5.5202,5.5218,5.5236,5.5229,5.5212,5.5218,5.5215,5.522,5.5235,5.5235,5.5235,5.5235,0,5.4176,5.421,5.4286,5.4373,5.4435,5.4506,5.4578,5.4611,5.4695,5.4749,5.4831,5.4884,5.4987,5.5066,5.5149,5.5197,5.5229,5.5237,5.5247,5.5232,5.5207,5.5221,5.5176,5.5235,5.5235,5.5235,5.5235,5.5235,5.4185,5.4234,5.4323,5.4404,5.4467,5.4533,5.4586,5.4649,5.4719,5.4812,5.4848,5.493,5.5008,5.5125,5.5173,5.5236,5.5241,5.5255,5.5259,5.5261,5.5259,5.5197,5.5251,5.5251,5.5251,5.5251,5.5251,0,5.4217,5.4277,5.4352,5.4454,5.4517,5.4546,5.4627,5.4677,5.4751,5.4823,5.4891,5.4983,5.5059,5.5133,5.5213,5.5249,5.5265,5.5267,5.5265,5.5276,5.525,5.5234,5.5253,5.5253,5.5253,5.5253,5.5253,5.5253,5.4241,5.4325,5.437,5.4485,5.4544,5.4629,5.4672,5.4733,5.4791,5.4894,5.496,5.5009,5.5081,5.5167,5.5237,5.5257,5.5283,5.5281,5.5304,5.5278,5.5277,5.5277,5.5262,5.5286,5.5286,5.5326,5.5326,5.5326]}]]